EW5165 Weather Reports


Display with metric or nautical units.
time (UTC)temp
F
wind
direction
speed
MPH
gust
MPH
rain 1hr
in
rain 24hr
in
rain mn
in
humidity
%
barometer
mb
20260906041004 72 0 0.0 0.0 0.00 0.00 0.00 95 1015.7
20260906040504 72 0 0.0 0.0 0.00 0.00 0.00 95 1015.6
20260906040004 72 0 0.0 0.0 0.00 0.00 0.00 95 1015.8
20260906035504 72 0 0.0 0.0 0.00 0.00 0.00 95 1015.9
20260906035004 72 0 0.0 0.0 0.00 0.00 0.00 95 1016.0
20260906034504 72 0 0.0 0.0 0.00 0.00 0.00 95 1016.1
20260906033504 72 270 0.0 1.0 0.00 0.00 0.00 94 1016.2
20260906033004 72 0 0.0 0.0 0.00 0.00 0.00 94 1016.1
20260906032504 72 270 0.0 1.0 0.00 0.00 0.00 95 1016.1
20260906032003 72 270 0.0 1.0 0.00 0.00 0.00 95 1016.2
20260906031503 72 270 0.0 1.0 0.00 0.00 0.00 95 1016.1
20260906030503 72 0 0.0 0.0 0.00 0.00 0.00 96 1016.2
20260906030003 72 0 0.0 0.0 0.00 0.00 0.00 96 1016.2
20260906025004 72 0 0.0 0.0 0.00 0.00 0.00 96 1016.3
20260906024003 72 0 0.0 0.0 0.00 0.00 0.00 96 1016.2
20260906023503 71 0 0.0 0.0 0.00 0.00 0.00 96 1016.2
20260906023004 71 0 0.0 0.0 0.00 0.00 0.00 96 1016.2
20260906022003 71 0 0.0 0.0 0.00 0.00 0.00 96 1015.9
20260906021503 71 0 0.0 0.0 0.00 0.00 0.00 95 1015.8
20260906020504 71 0 0.0 0.0 0.00 0.00 0.00 96 1015.8
20260906020003 71 0 0.0 0.0 0.00 0.00 0.00 95 1015.7
20260906015503 72 0 0.0 0.0 0.00 0.00 0.00 95 1015.6
20260906015004 72 0 0.0 0.0 0.00 0.00 0.00 95 1015.7
20260906014504 72 0 0.0 0.0 0.00 0.00 0.00 95 1015.7
20260906014003 72 0 0.0 0.0 0.00 0.00 0.00 95 1015.8
20260906013504 72 0 0.0 0.0 0.00 0.00 0.00 95 1015.9
20260906013004 72 0 0.0 0.0 0.00 0.00 0.00 95 1015.8
20260906012503 72 0 0.0 0.0 0.00 0.00 0.00 94 1015.7
20260906012004 72 0 0.0 0.0 0.00 0.00 0.00 94 1015.7
20260906011003 72 0 0.0 0.0 0.00 0.00 0.00 94 1015.7
20260906010503 72 0 0.0 0.0 0.00 0.00 0.00 94 1015.5
20260906010004 72 0 0.0 0.0 0.00 0.00 0.00 94 1015.5
20260906005003 73 0 0.0 0.0 0.00 0.00 0.00 93 1015.5
20260906004503 73 0 0.0 0.0 0.00 0.00 0.00 93 1015.4
20260906004004 73 0 0.0 0.0 0.00 0.00 0.00 93 1015.2
20260906003504 73 0 0.0 0.0 0.00 0.00 0.00 93 1015.2
20260906003003 73 0 0.0 0.0 0.00 0.00 0.00 93 1015.2
20260906002004 74 0 0.0 0.0 0.00 0.00 0.00 93 1015.1
20260906001504 74 0 0.0 0.0 0.00 0.00 0.00 93 1015.0
20260906000004 74 0 0.0 0.0 0.00 0.00 0.00 92 1014.8
20260905235504 75 0 0.0 0.0 0.00 0.00 0.00 92 1014.8
20260905234504 75 0 0.0 0.0 0.00 0.00 0.00 91 1014.6
20260905233504 76 0 0.0 0.0 0.00 0.00 0.00 91 1014.7
20260905233003 76 0 0.0 0.0 0.00 0.00 0.00 90 1014.8
20260905231504 76 270 0.0 1.0 0.00 0.00 0.00 89 1014.8
20260905231002 76 270 0.0 1.0 0.00 0.00 0.00 88 1014.6
20260905230502 76 270 0.0 1.0 0.00 0.00 0.00 88 1014.7
20260905230002 76 270 0.0 1.0 0.00 0.00 0.00 89 1014.7
20260905225502 76 270 0.0 1.0 0.00 0.00 0.00 87 1014.5
20260905224502 77 270 0.0 1.0 0.00 0.00 0.00 89 1014.5
20260905224002 77 270 0.0 1.0 0.00 0.00 0.00 88 1014.6
20260905223003 78 0 0.0 0.0 0.00 0.00 0.00 87 1014.5
20260905222502 78 270 0.0 1.0 0.00 0.00 0.00 86 1014.5
20260905222002 78 270 0.0 1.0 0.00 0.00 0.00 85 1014.7
20260905221503 78 270 0.0 1.0 0.00 0.00 0.00 85 1014.8
20260905221002 78 270 0.0 1.0 0.00 0.00 0.00 84 1014.7
20260905220502 78 270 0.0 1.0 0.00 0.00 0.00 84 1014.7
20260905220002 78 270 1.0 1.0 0.00 0.00 0.00 84 1014.8
20260905215502 77 270 0.0 1.0 0.00 0.00 0.00 84 1014.8
20260905215002 77 270 0.0 1.0 0.00 0.00 0.00 85 1014.9
20260905214502 77 270 0.0 1.0 0.00 0.00 0.00 86 1015.0
20260905214003 77 270 0.0 1.0 0.00 0.00 0.00 86 1015.1
20260905213002 77 110 0.0 3.0 0.00 0.00 0.00 85 1015.2
20260905212502 77 95 0.0 1.0 0.00 0.00 0.00 85 1015.3
20260905211502 77 95 0.0 1.0 0.00 0.00 0.00 84 1015.4
20260905211003 77 95 0.0 1.0 0.00 0.00 0.00 84 1015.5
20260905210503 77 95 0.0 3.0 0.00 0.00 0.00 84 1015.5
20260905210003 77 95 0.0 3.0 0.00 0.00 0.00 83 1015.3
20260905205502 77 95 0.0 1.0 0.00 0.00 0.00 84 1015.5
20260905205002 77 95 0.0 1.0 0.00 0.00 0.00 84 1015.4
20260905204503 77 0 0.0 0.0 0.00 0.00 0.00 84 1015.4
20260905204003 77 95 0.0 1.0 0.00 0.00 0.00 84 1015.7
20260905203503 77 95 0.0 1.0 0.00 0.00 0.00 83 1015.6
20260905203003 77 95 0.0 1.0 0.00 0.00 0.00 84 1015.7
20260905202002 77 95 0.0 1.0 0.00 0.00 0.00 82 1015.7
20260905201503 76 94 0.0 1.0 0.00 0.00 0.00 80 1015.8
20260905201002 76 95 0.0 1.0 0.00 0.00 0.00 82 1015.7
20260905200502 76 73 0.0 1.0 0.00 0.00 0.00 81 1015.8
20260905200003 76 71 0.0 1.0 0.00 0.00 0.00 82 1015.9
20260905195502 76 70 0.0 1.0 0.00 0.00 0.00 82 1016.0
20260905195002 76 70 0.0 3.0 0.00 0.00 0.00 81 1016.0
20260905194502 76 70 0.0 3.0 0.00 0.00 0.00 82 1016.0
20260905193502 76 69 0.0 1.0 0.00 0.00 0.00 81 1016.0
20260905193003 76 69 0.0 1.0 0.00 0.00 0.00 81 1016.0
20260905192502 75 0 0.0 0.0 0.00 0.00 0.00 80 1016.0
20260905192003 75 0 0.0 0.0 0.00 0.00 0.00 80 1016.2
20260905191502 76 70 0.0 1.0 0.00 0.00 0.00 80 1016.2
20260905191003 76 70 0.0 1.0 0.00 0.00 0.00 79 1016.4
20260905190502 76 70 0.0 3.0 0.00 0.00 0.00 78 1016.4
20260905190002 76 75 0.0 3.0 0.00 0.00 0.00 79 1016.6
20260905185502 76 130 0.0 3.0 0.00 0.00 0.00 80 1016.8
20260905185003 76 166 1.0 3.0 0.00 0.00 0.00 79 1017.1
20260905184503 77 164 1.0 3.0 0.00 0.00 0.00 81 1017.5
20260905184002 77 154 2.0 7.0 0.00 0.00 0.00 81 1017.5
20260905183503 77 156 2.0 10.0 0.00 0.00 0.00 80 1017.4
20260905183002 78 165 1.0 10.0 0.00 0.00 0.00 81 1017.2
20260905182502 78 271 0.0 3.0 0.00 0.00 0.00 80 1016.6
20260905182002 78 242 1.0 3.0 0.00 0.00 0.00 81 1016.6
20260905181503 79 234 1.0 3.0 0.00 0.00 0.00 79 1016.5
20260905181003 80 230 1.0 3.0 0.00 0.00 0.00 79 1016.6
20260905180503 81 232 1.0 3.0 0.00 0.00 0.00 80 1016.4
20260905180003 82 211 1.0 3.0 0.00 0.00 0.00 78 1016.3
20260905175503 83 172 1.0 3.0 0.00 0.00 0.00 76 1016.5
20260905175003 83 168 1.0 3.0 0.00 0.00 0.00 77 1016.4
20260905174504 84 168 0.0 3.0 0.00 0.00 0.00 75 1016.3
20260905174002 84 168 0.0 3.0 0.00 0.00 0.00 74 1016.6
20260905173502 85 168 1.0 3.0 0.00 0.00 0.00 74 1016.5
20260905172003 86 168 1.0 6.0 0.00 0.00 0.00 72 1016.6
20260905171003 86 168 2.0 8.0 0.00 0.00 0.00 72 1016.5
20260905170503 85 175 2.0 8.0 0.00 0.00 0.00 73 1016.6
20260905170003 85 178 2.0 7.0 0.00 0.00 0.00 74 1016.8
20260905165503 85 167 3.0 8.0 0.00 0.00 0.00 75 1016.8
20260905165003 84 161 2.0 8.0 0.00 0.00 0.00 75 1016.8
20260905164503 84 163 1.0 6.0 0.00 0.00 0.00 77 1016.8
20260905163503 84 172 4.0 8.0 0.00 0.00 0.00 77 1017.0
20260905163003 84 183 2.0 7.0 0.00 0.00 0.00 76 1017.2
20260905162503 83 189 2.0 6.0 0.00 0.00 0.00 79 1017.3
20260905162002 83 185 2.0 6.0 0.00 0.00 0.00 78 1017.5
20260905161502 83 178 2.0 7.0 0.00 0.00 0.00 79 1017.5
20260905161003 83 172 3.0 7.0 0.00 0.00 0.00 79 1017.5
20260905160503 82 170 2.0 7.0 0.00 0.00 0.00 80 1017.6
20260905160003 82 176 1.0 3.0 0.00 0.00 0.00 81 1017.5
20260905155002 82 197 2.0 6.0 0.00 0.00 0.00 80 1017.4
20260905154002 81 172 3.0 8.0 0.00 0.00 0.00 82 1017.5
20260905153503 81 168 1.0 6.0 0.00 0.00 0.00 84 1017.6
20260905152503 80 185 1.0 4.0 0.00 0.00 0.00 85 1017.5
20260905152003 80 185 1.0 4.0 0.00 0.00 0.00 86 1017.5
20260905151503 80 181 1.0 4.0 0.00 0.00 0.00 86 1017.3
20260905151003 80 175 1.0 4.0 0.00 0.00 0.00 86 1017.4
20260905150003 79 167 1.0 6.0 0.00 0.00 0.00 88 1017.4
20260905145002 78 167 2.0 7.0 0.00 0.00 0.00 87 1017.4
20260905144503 78 170 1.0 7.0 0.00 0.00 0.00 89 1017.4
20260905143502 77 195 1.0 6.0 0.00 0.00 0.00 89 1017.5
20260905143003 76 223 0.0 1.0 0.00 0.00 0.00 91 1017.6
20260905142503 76 223 0.0 1.0 0.00 0.00 0.00 92 1017.5
20260905142003 76 223 0.0 1.0 0.00 0.00 0.00 92 1017.5
20260905141003 75 223 0.0 1.0 0.00 0.00 0.00 92 1017.6
20260905140503 75 223 0.0 1.0 0.00 0.00 0.00 93 1017.7
20260905140003 75 223 0.0 1.0 0.00 0.00 0.00 93 1017.7
20260905135503 75 223 0.0 1.0 0.00 0.00 0.00 93 1017.7
20260905135002 74 223 0.0 1.0 0.00 0.00 0.00 94 1017.7
20260905134503 74 223 0.0 1.0 0.00 0.00 0.00 94 1017.8
20260905134003 74 223 0.0 1.0 0.00 0.00 0.00 94 1017.7
20260905133502 74 223 0.0 1.0 0.00 0.00 0.00 94 1017.9
20260905133003 74 223 0.0 1.0 0.00 0.00 0.00 95 1017.9
20260905132503 73 223 0.0 3.0 0.00 0.00 0.00 95 1017.9
20260905132003 73 223 1.0 3.0 0.00 0.00 0.00 95 1018.0
20260905131502 73 223 1.0 3.0 0.00 0.00 0.00 95 1018.0
20260905131003 72 223 1.0 3.0 0.00 0.00 0.00 96 1018.0
20260905130503 72 223 1.0 3.0 0.00 0.00 0.00 96 1018.0
20260905130003 72 223 0.0 3.0 0.00 0.00 0.00 97 1018.0
20260905125503 72 223 0.0 3.0 0.00 0.00 0.00 97 1017.9
20260905125003 72 228 0.0 3.0 0.00 0.00 0.00 97 1017.9
20260905124503 71 245 0.0 1.0 0.00 0.00 0.00 100 1017.9
20260905123503 71 149 0.0 1.0 0.00 0.00 0.00 100 1017.8
20260905123003 71 0 0.0 0.0 0.00 0.00 0.00 99 1017.6
20260905122503 71 0 0.0 0.0 0.00 0.00 0.00 99 1017.7
20260905122003 71 0 0.0 0.0 0.00 0.00 0.00 99 1017.8
20260905121503 70 0 0.0 0.0 0.00 0.00 0.00 99 1017.6
20260905121002 70 149 0.0 1.0 0.00 0.00 0.00 99 1017.6
20260905120503 70 149 0.0 1.0 0.00 0.00 0.00 99 1017.6
20260905120003 70 149 0.0 1.0 0.00 0.00 0.00 100 1017.6
20260905115503 70 149 0.0 1.0 0.00 0.00 0.00 100 1017.7
20260905115003 70 149 0.0 1.0 0.00 0.00 0.00 100 1017.6
20260905114502 70 149 0.0 1.0 0.00 0.00 0.00 100 1017.5
20260905114005 69 0 0.0 0.0 0.00 0.00 0.00 100 1017.3
20260905113503 69 0 0.0 0.0 0.00 0.00 0.00 100 1017.3
20260905113002 69 0 0.0 0.0 0.00 0.00 0.00 100 1017.1
20260905112503 69 0 0.0 0.0 0.00 0.00 0.00 100 1017.1
20260905112003 69 0 0.0 0.0 0.00 0.00 0.00 99 1017.1
20260905111004 69 0 0.0 0.0 0.00 0.00 0.00 99 1017.0
20260905110503 69 0 0.0 0.0 0.00 0.00 0.00 99 1017.0
20260905110003 70 0 0.0 0.0 0.00 0.00 0.00 99 1016.9
20260905105503 70 0 0.0 0.0 0.00 0.00 0.00 99 1016.8
20260905104503 70 0 0.0 0.0 0.00 0.00 0.00 99 1016.6
20260905104003 70 0 0.0 0.0 0.00 0.00 0.00 99 1016.5
20260905103503 70 0 0.0 0.0 0.00 0.00 0.00 99 1016.5
20260905103003 70 149 0.0 1.0 0.00 0.00 0.00 99 1016.6
20260905102503 70 149 0.0 1.0 0.00 0.00 0.00 99 1016.4
20260905101504 70 0 0.0 0.0 0.00 0.00 0.00 100 1016.4
20260905101004 70 0 0.0 0.0 0.00 0.00 0.00 100 1016.4
20260905100503 70 0 0.0 0.0 0.00 0.00 0.00 100 1016.4
20260905095503 70 0 0.0 0.0 0.00 0.00 0.00 100 1016.4
20260905095004 70 0 0.0 0.0 0.00 0.00 0.00 100 1016.4
20260905094003 71 0 0.0 0.0 0.00 0.00 0.00 97 1016.4
20260905093003 71 0 0.0 0.0 0.00 0.00 0.00 97 1016.4
20260905092503 71 0 0.0 0.0 0.00 0.00 0.00 100 1016.4
20260905092003 71 0 0.0 0.0 0.00 0.00 0.00 100 1016.4
20260905091503 71 0 0.0 0.0 0.00 0.00 0.00 97 1016.4
20260905091003 71 0 0.0 0.0 0.00 0.00 0.00 97 1016.4
20260905090503 72 0 0.0 0.0 0.00 0.00 0.00 97 1016.6
20260905090003 72 149 0.0 1.0 0.00 0.00 0.00 97 1016.5
20260905085503 72 149 0.0 1.0 0.00 0.00 0.00 97 1016.5
20260905085003 72 0 0.0 0.0 0.00 0.00 0.00 97 1016.6
20260905084503 72 0 0.0 0.0 0.00 0.00 0.00 97 1016.6
20260905084004 72 0 0.0 0.0 0.00 0.00 0.00 100 1016.8
20260905083503 72 0 0.0 0.0 0.00 0.00 0.00 100 1016.8
20260905083003 72 0 0.0 0.0 0.00 0.00 0.00 100 1016.9
20260905082503 72 0 0.0 0.0 0.00 0.00 0.00 100 1016.9
20260905082003 72 149 0.0 1.0 0.00 0.00 0.00 100 1016.9
20260905081503 72 149 0.0 1.0 0.00 0.00 0.00 100 1016.9
20260905080503 71 149 0.0 1.0 0.00 0.00 0.00 100 1017.0
20260905080004 71 149 0.0 1.0 0.00 0.00 0.00 99 1017.1
20260905075504 71 149 0.0 1.0 0.00 0.00 0.00 99 1017.1
20260905075004 71 0 0.0 0.0 0.00 0.00 0.00 99 1017.0
20260905074504 71 149 0.0 1.0 0.00 0.00 0.00 99 1017.1
20260905073503 71 149 0.0 1.0 0.00 0.00 0.00 99 1017.1
20260905073003 71 149 0.0 1.0 0.00 0.00 0.00 100 1017.2
20260905072504 71 149 0.0 1.0 0.00 0.00 0.00 100 1017.3
20260905072004 71 0 0.0 0.0 0.00 0.00 0.00 100 1017.3
20260905071003 71 149 0.0 1.0 0.00 0.00 0.00 100 1017.4
20260905070503 71 0 0.0 0.0 0.00 0.00 0.00 100 1017.4
20260905065503 71 0 0.0 0.0 0.00 0.00 0.00 100 1017.5
20260905065003 71 0 0.0 0.0 0.00 0.00 0.00 100 1017.5
20260905064503 71 0 0.0 0.0 0.00 0.00 0.00 100 1017.6
20260905064004 71 0 0.0 0.0 0.00 0.00 0.00 97 1017.6
20260905063503 71 0 0.0 0.0 0.00 0.00 0.00 97 1017.8
20260905063003 71 0 0.0 0.0 0.00 0.00 0.00 97 1017.8
20260905062504 71 0 0.0 0.0 0.00 0.00 0.00 97 1017.8
20260905062003 71 0 0.0 0.0 0.00 0.00 0.00 96 1017.8
20260905061503 71 0 0.0 0.0 0.00 0.00 0.00 96 1017.9
20260905061003 71 0 0.0 0.0 0.00 0.00 0.00 96 1017.9
20260905060004 72 0 0.0 0.0 0.00 0.00 0.00 96 1017.9
20260905055504 72 0 0.0 0.0 0.00 0.00 0.00 96 1018.0
20260905055004 72 0 0.0 0.0 0.00 0.00 0.00 96 1018.0
20260905054503 72 0 0.0 0.0 0.00 0.00 0.00 96 1018.0
20260905054003 72 0 0.0 0.0 0.00 0.00 0.00 96 1018.1
20260905053503 72 0 0.0 0.0 0.00 0.00 0.00 95 1018.1
20260905053004 72 0 0.0 0.0 0.00 0.00 0.00 95 1018.1
20260905052004 72 0 0.0 0.0 0.00 0.00 0.00 95 1018.1
20260905051504 72 0 0.0 0.0 0.00 0.00 0.00 95 1018.1
20260905051003 72 0 0.0 0.0 0.00 0.00 0.00 95 1018.2
20260905050503 73 0 0.0 0.0 0.00 0.00 0.00 95 1018.2
20260905050003 73 0 0.0 0.0 0.00 0.00 0.00 94 1018.2
20260905045503 73 0 0.0 0.0 0.00 0.00 0.00 94 1018.3
20260905045003 73 0 0.0 0.0 0.00 0.00 0.00 94 1018.1
20260905044504 73 0 0.0 0.0 0.00 0.00 0.00 93 1018.1
20260905044003 73 0 0.0 0.0 0.00 0.00 0.00 93 1018.1
20260905043504 73 0 0.0 0.0 0.00 0.00 0.00 93 1018.0
20260905043004 74 0 0.0 0.0 0.00 0.00 0.00 93 1017.9
20260905042503 74 0 0.0 0.0 0.00 0.00 0.00 92 1017.8
20260905042003 74 0 0.0 0.0 0.00 0.00 0.00 92 1017.7
20260905041504 74 0 0.0 0.0 0.00 0.00 0.00 92 1017.7